• In India
  • List of Countries
  • For 7 days
  • Water Temperature
  • Satellite Maps
  • Weather Map
  • Weather Widgets
  • user-avatar
    Login

    Hourly Weather Bubanza

    Today, 10 December, Monday

    Time Temperature Precipitation Wind Pressure Humidity
    00:00 +19°C° 1.3 mm 0 mps 674 mmHg 93%
    01:00 +19°C° 1.3 mm 0 mps 674 mmHg 93%
    02:00 +19°C° 1.3 mm 0 mps 674 mmHg 94%
    03:00 +19°C° 1.3 mm 0 mps 674 mmHg 94%
    04:00 +19°C° 1.3 mm 0 mps 674 mmHg 94%
    05:00 +19°C° 1.3 mm 0 mps 674 mmHg 94%
    06:00 +19°C° 1 mm 0 mps 675 mmHg 92%
    07:00 +20°C° 1 mm 0 mps 675 mmHg 90%
    08:00 +20°C° 1 mm 0 mps 676 mmHg 88%
    09:00 +22°C° 0.5 mm 0 mps 676 mmHg 83%
    10:00 +25°C° 0.5 mm 1 mps 676 mmHg 78%
    11:00 +26°C° 0.5 mm 1 mps 676 mmHg 73%
    12:00 +27°C° 0.4 mm 1 mps 675 mmHg 71%
    13:00 +27°C° 0.4 mm 1 mps 675 mmHg 69%
    14:00 +28°C° 0.4 mm 1 mps 674 mmHg 67%
    15:00 +27°C° 0.6 mm 1 mps 674 mmHg 72%
    16:00 +26°C° 0.6 mm 1 mps 673 mmHg 76%
    17:00 +25°C° 0.6 mm 1 mps 673 mmHg 80%
    18:00 +22°C° 0.9 mm 0 mps 673 mmHg 83%
    19:00 +21°C° 0.9 mm 0 mps 674 mmHg 86%
    20:00 +20°C° 0.9 mm 0 mps 674 mmHg 89%
    21:00 +20°C° 1.1 mm 0 mps 674 mmHg 90%
    22:00 +19°C° 1.1 mm 0 mps 674 mmHg 91%
    23:00 +19°C° 1.1 mm 0 mps 675 mmHg 92%

    Tomorrow, 11 December, Tuesday

    Time Temperature Precipitation Wind Pressure Humidity
    00:00 +19°C° 0.8 mm 0 mps 674 mmHg 92%
    01:00 +19°C° 0.8 mm 0 mps 674 mmHg 92%
    02:00 +21°C° 0.8 mm 1 mps 673 mmHg 93%
    03:00 +19°C° 0.7 mm 0 mps 673 mmHg 93%
    04:00 +19°C° 0.7 mm 0 mps 673 mmHg 93%
    05:00 +19°C° 0.7 mm 0 mps 673 mmHg 93%
    06:00 +19°C° 0.8 mm 0 mps 674 mmHg 91%
    07:00 +20°C° 0.8 mm 0 mps 675 mmHg 89%
    08:00 +21°C° 0.8 mm 0 mps 675 mmHg 87%
    09:00 +21°C° 0.8 mm 0 mps 675 mmHg 84%
    10:00 +24°C° 0.8 mm 1 mps 675 mmHg 81%
    11:00 +25°C° 0.8 mm 1 mps 675 mmHg 78%
    12:00 +26°C° 0.6 mm 1 mps 674 mmHg 76%
    13:00 +26°C° 0.6 mm 1 mps 674 mmHg 73%
    14:00 +27°C° 0.6 mm 1 mps 673 mmHg 71%
    15:00 +26°C° 0.5 mm 1 mps 673 mmHg 74%
    16:00 +25°C° 0.5 mm 1 mps 673 mmHg 77%
    17:00 +22°C° 0.5 mm 0 mps 672 mmHg 80%
    18:00 +22°C° 0.5 mm 0 mps 673 mmHg 82%
    19:00 +21°C° 0.5 mm 0 mps 674 mmHg 85%
    20:00 +20°C° 0.5 mm 0 mps 674 mmHg 88%
    21:00 +20°C° 0.7 mm 0 mps 674 mmHg 89%
    22:00 +20°C° 0.7 mm 0 mps 675 mmHg 90%
    23:00 +20°C° 0.7 mm 0 mps 675 mmHg 91%

    Day after tomorrow, 12 December, Wednesday

    Time Temperature Precipitation Wind Pressure Humidity
    00:00 +19°C° 0.7 mm 0 mps 674 mmHg 91%
    01:00 +19°C° 0.7 mm 0 mps 674 mmHg 92%
    02:00 +19°C° 0.7 mm 0 mps 673 mmHg 93%
    03:00 +19°C° 0.7 mm 0 mps 673 mmHg 93%
    04:00 +21°C° 0.7 mm 1 mps 673 mmHg 93%
    05:00 +21°C° 0.7 mm 1 mps 674 mmHg 93%
    06:00 +21°C° 0.6 mm 1 mps 674 mmHg 92%
    07:00 +22°C° 0.6 mm 1 mps 675 mmHg 91%
    08:00 +22°C° 0.6 mm 1 mps 675 mmHg 90%
    09:00 +23°C° 0.8 mm 1 mps 675 mmHg 87%
    10:00 +24°C° 0.8 mm 1 mps 676 mmHg 85%
    11:00 +24°C° 0.8 mm 1 mps 676 mmHg 83%
    12:00 +25°C° 0.9 mm 1 mps 675 mmHg 82%
    13:00 +25°C° 0.9 mm 1 mps 674 mmHg 82%
    14:00 +25°C° 0.9 mm 1 mps 674 mmHg 81%
    15:00 +25°C° 0.5 mm 1 mps 673 mmHg 82%
    16:00 +24°C° 0.5 mm 1 mps 673 mmHg 83%
    17:00 +24°C° 0.5 mm 1 mps 673 mmHg 83%
    18:00 +23°C° 0.3 mm 1 mps 673 mmHg 85%
    19:00 +22°C° 0.3 mm 1 mps 674 mmHg 87%
    20:00 +21°C° 0.3 mm 1 mps 674 mmHg 88%
    21:00 +21°C° 0.7 mm 1 mps 675 mmHg 89%
    22:00 +21°C° 0.7 mm 1 mps 675 mmHg 90%
    23:00 +21°C° 0.7 mm 1 mps 675 mmHg 91%

    13 December, Thursday

    Time Temperature Precipitation Wind Pressure Humidity
    00:00 +21°C° 1 mm 1 mps 674 mmHg 91%
    01:00 +21°C° 1 mm 1 mps 674 mmHg 92%
    02:00 +21°C° 1 mm 1 mps 673 mmHg 92%
    03:00 +21°C° 0.4 mm 1 mps 673 mmHg 92%
    04:00 +21°C° 0.4 mm 1 mps 673 mmHg 91%
    05:00 +21°C° 0.4 mm 1 mps 673 mmHg 91%
    06:00 +20°C° 0.3 mm 0 mps 674 mmHg 88%
    07:00 +21°C° 0.3 mm 0 mps 675 mmHg 84%
    08:00 +22°C° 0.3 mm 0 mps 676 mmHg 81%
    09:00 +24°C° 0.2 mm 0 mps 676 mmHg 73%
    10:00 +28°C° 0.2 mm 1 mps 676 mmHg 65%
    11:00 +29°C° 0.2 mm 1 mps 676 mmHg 57%
    12:00 +29°C° 0.3 mm 1 mps 675 mmHg 59%
    13:00 +29°C° 0.3 mm 1 mps 674 mmHg 61%
    14:00 +29°C° 0.3 mm 1 mps 673 mmHg 63%
    15:00 +27°C° 0.8 mm 1 mps 673 mmHg 68%
    16:00 +26°C° 0.8 mm 1 mps 673 mmHg 73%
    17:00 +25°C° 0.8 mm 1 mps 673 mmHg 78%
    18:00 +24°C° 1 mm 1 mps 673 mmHg 81%
    19:00 +21°C° 1 mm 0 mps 674 mmHg 84%
    20:00 +20°C° 1 mm 0 mps 674 mmHg 87%
    21:00 +20°C° 1.6 mm 0 mps 674 mmHg 89%
    22:00 +20°C° 1.6 mm 0 mps 674 mmHg 91%
    23:00 +19°C° 1.6 mm 0 mps 675 mmHg 92%

    14 December, Friday

    Time Temperature Precipitation Wind Pressure Humidity
    00:00 +21°C° 0.4 mm 1 mps 674 mmHg 92%
    01:00 +21°C° 0.4 mm 1 mps 673 mmHg 92%
    02:00 +21°C° 0.4 mm 1 mps 673 mmHg 92%
    03:00 +21°C° 0.1 mm 1 mps 673 mmHg 92%
    04:00 +21°C° 0.1 mm 1 mps 673 mmHg 92%
    05:00 +21°C° 0.1 mm 1 mps 673 mmHg 91%
    06:00 +22°C° 0 mm 1 mps 674 mmHg 88%
    07:00 +21°C° 0 mm 0 mps 675 mmHg 84%
    08:00 +22°C° 0 mm 0 mps 676 mmHg 81%
    09:00 +26°C° 0.1 mm 1 mps 676 mmHg 75%
    10:00 +27°C° 0.1 mm 1 mps 676 mmHg 68%
    11:00 +29°C° 0.1 mm 2 mps 675 mmHg 62%
    12:00 +29°C° 0.7 mm 2 mps 675 mmHg 64%
    13:00 +28°C° 0.7 mm 2 mps 674 mmHg 66%
    14:00 +28°C° 0.7 mm 2 mps 673 mmHg 68%
    15:00 +27°C° 0.8 mm 1 mps 673 mmHg 72%
    16:00 +27°C° 0.8 mm 1 mps 673 mmHg 75%
    17:00 +26°C° 0.8 mm 1 mps 673 mmHg 78%
    18:00 +25°C° 0.2 mm 1 mps 673 mmHg 81%
    19:00 +24°C° 0.2 mm 1 mps 674 mmHg 83%
    20:00 +23°C° 0.2 mm 1 mps 674 mmHg 86%
    21:00 +22°C° 0.1 mm 1 mps 674 mmHg 87%
    22:00 +22°C° 0.1 mm 1 mps 674 mmHg 88%
    23:00 +22°C° 0.1 mm 1 mps 674 mmHg 88%

    15 December, Saturday

    Time Temperature Precipitation Wind Pressure Humidity
    00:00 +21°C° 0 mm 1 mps 674 mmHg 88%
    01:00 +21°C° 0 mm 1 mps 673 mmHg 88%
    02:00 +21°C° 0 mm 1 mps 673 mmHg 89%
    03:00 +20°C° 0 mm 1 mps 673 mmHg 88%
    04:00 +20°C° 0 mm 1 mps 673 mmHg 88%
    05:00 +20°C° 0 mm 1 mps 673 mmHg 88%
    06:00 +22°C° 0 mm 1 mps 674 mmHg 82%
    07:00 +22°C° 0 mm 0 mps 675 mmHg 76%
    08:00 +24°C° 0 mm 0 mps 676 mmHg 71%
    09:00 +28°C° 0 mm 1 mps 675 mmHg 63%
    10:00 +30°C° 0 mm 1 mps 675 mmHg 55%
    11:00 +32°C° 0 mm 1 mps 675 mmHg 47%
    12:00 +32°C° 0.2 mm 1 mps 674 mmHg 49%
    13:00 +31°C° 0.2 mm 1 mps 673 mmHg 51%
    14:00 +31°C° 0.2 mm 1 mps 673 mmHg 53%
    15:00 +30°C° 0.4 mm 1 mps 673 mmHg 57%
    16:00 +29°C° 0.4 mm 1 mps 673 mmHg 62%
    17:00 +28°C° 0.4 mm 1 mps 672 mmHg 66%
    18:00 +26°C° 0.6 mm 1 mps 673 mmHg 71%
    19:00 +25°C° 0.6 mm 1 mps 673 mmHg 77%
    20:00 +21°C° 0.6 mm 0 mps 673 mmHg 83%
    21:00 +21°C° 0.2 mm 0 mps 673 mmHg 84%
    22:00 +20°C° 0.2 mm 0 mps 674 mmHg 84%
    23:00 +20°C° 0.2 mm 0 mps 674 mmHg 85%
    Show more